• In Hungary
  • List of Countries
  • For 7 days
  • Water Temperature
  • Satellite Maps
  • Weather Map
  • News
  • Weather Widgets
  • user-avatar
    Login

    Hourly Weather Ronse

    Today, 13 December, Wednesday

    Time Temperature Precipitation Wind Pressure Humidity
    00:00 -1°C° 0 mm 6 mps 754 mmHg 89%
    01:00 -1°C° 0 mm 7 mps 753 mmHg 88%
    02:00 0°C° 0 mm 7 mps 753 mmHg 88%
    03:00 0°C° 0 mm 8 mps 752 mmHg 87%
    04:00 0°C° 0.3 mm 8 mps 751 mmHg 86%
    05:00 +1°C° 0.3 mm 9 mps 750 mmHg 86%
    06:00 +1°C° 0.3 mm 10 mps 749 mmHg 85%
    07:00 +2°C° 0.8 mm 9 mps 749 mmHg 86%
    08:00 +2°C° 0.8 mm 9 mps 748 mmHg 87%
    09:00 +3°C° 0.8 mm 9 mps 747 mmHg 88%
    10:00 +4°C° 0.9 mm 8 mps 747 mmHg 88%
    11:00 +4°C° 0.9 mm 7 mps 746 mmHg 89%
    12:00 +5°C° 0.9 mm 6 mps 746 mmHg 90%
    13:00 +5°C° 0.2 mm 6 mps 745 mmHg 89%
    14:00 +7°C° 0.2 mm 6 mps 744 mmHg 88%
    15:00 +6°C° 0.2 mm 7 mps 743 mmHg 86%
    16:00 +6°C° 1.6 mm 8 mps 742 mmHg 86%
    17:00 +6°C° 1.6 mm 10 mps 741 mmHg 86%
    18:00 +6°C° 1.6 mm 11 mps 740 mmHg 86%
    19:00 +5°C° 1.6 mm 10 mps 740 mmHg 81%
    20:00 +4°C° 1.6 mm 8 mps 740 mmHg 76%
    21:00 +4°C° 1.6 mm 7 mps 740 mmHg 70%
    22:00 +2°C° 0.8 mm 8 mps 740 mmHg 72%
    23:00 +2°C° 0.8 mm 8 mps 740 mmHg 73%

    Tomorrow, 14 December, Thursday

    Time Temperature Precipitation Wind Pressure Humidity
    00:00 +2°C° 0.8 mm 9 mps 740 mmHg 75%
    01:00 +2°C° 0.3 mm 9 mps 741 mmHg 71%
    02:00 +1°C° 0.3 mm 9 mps 742 mmHg 67%
    03:00 +1°C° 0.3 mm 9 mps 742 mmHg 63%
    04:00 0°C° 0 mm 8 mps 743 mmHg 65%
    05:00 0°C° 0 mm 8 mps 744 mmHg 67%
    06:00 0°C° 0 mm 7 mps 744 mmHg 69%
    07:00 +2°C° 0.2 mm 7 mps 744 mmHg 71%
    08:00 +2°C° 0.2 mm 7 mps 744 mmHg 72%
    09:00 +2°C° 0.2 mm 7 mps 744 mmHg 74%
    10:00 +3°C° 0.5 mm 7 mps 743 mmHg 73%
    11:00 +3°C° 0.5 mm 7 mps 743 mmHg 73%
    12:00 +4°C° 0.5 mm 7 mps 743 mmHg 73%
    13:00 +4°C° 0.5 mm 6 mps 742 mmHg 74%
    14:00 +3°C° 0.5 mm 6 mps 741 mmHg 76%
    15:00 +3°C° 0.5 mm 5 mps 741 mmHg 78%
    16:00 +3°C° 0.4 mm 5 mps 740 mmHg 78%
    17:00 +3°C° 0.4 mm 4 mps 740 mmHg 79%
    18:00 +3°C° 0.4 mm 4 mps 740 mmHg 79%
    19:00 +3°C° 0 mm 4 mps 740 mmHg 79%
    20:00 +1°C° 0 mm 4 mps 740 mmHg 79%
    21:00 +1°C° 0 mm 4 mps 740 mmHg 79%
    22:00 0°C° 0 mm 4 mps 740 mmHg 80%
    23:00 0°C° 0 mm 4 mps 740 mmHg 81%

    Day after tomorrow, 15 December, Friday

    Time Temperature Precipitation Wind Pressure Humidity
    00:00 0°C° 0 mm 4 mps 740 mmHg 81%
    01:00 0°C° 0.2 mm 5 mps 740 mmHg 82%
    02:00 +1°C° 0.2 mm 6 mps 740 mmHg 82%
    03:00 0°C° 0.2 mm 7 mps 740 mmHg 83%
    04:00 +1°C° 0.1 mm 6 mps 740 mmHg 84%
    05:00 +1°C° 0.1 mm 5 mps 740 mmHg 86%
    06:00 +1°C° 0.1 mm 5 mps 740 mmHg 88%
    07:00 +1°C° 0 mm 5 mps 740 mmHg 88%
    08:00 +1°C° 0 mm 4 mps 741 mmHg 89%
    09:00 +1°C° 0 mm 4 mps 741 mmHg 89%
    10:00 +3°C° 0.1 mm 4 mps 742 mmHg 86%
    11:00 +4°C° 0.1 mm 4 mps 742 mmHg 83%
    12:00 +5°C° 0.1 mm 4 mps 742 mmHg 80%
    13:00 +5°C° 0.1 mm 4 mps 743 mmHg 81%
    14:00 +4°C° 0.1 mm 4 mps 744 mmHg 81%
    15:00 +4°C° 0.1 mm 4 mps 744 mmHg 81%
    16:00 +4°C° 0.1 mm 4 mps 745 mmHg 83%
    17:00 +3°C° 0.1 mm 4 mps 746 mmHg 84%
    18:00 +3°C° 0.1 mm 4 mps 747 mmHg 86%
    19:00 +3°C° 0.1 mm 4 mps 747 mmHg 84%
    20:00 +3°C° 0.1 mm 4 mps 748 mmHg 83%
    21:00 +3°C° 0.1 mm 4 mps 749 mmHg 82%
    22:00 +3°C° 0 mm 4 mps 749 mmHg 83%
    23:00 +1°C° 0 mm 5 mps 750 mmHg 83%

    16 December, Saturday

    Time Temperature Precipitation Wind Pressure Humidity
    00:00 +1°C° 0 mm 5 mps 750 mmHg 84%
    01:00 +1°C° 0.1 mm 5 mps 751 mmHg 84%
    02:00 0°C° 0.1 mm 5 mps 751 mmHg 84%
    03:00 0°C° 0.1 mm 5 mps 751 mmHg 84%
    04:00 0°C° 0.1 mm 5 mps 752 mmHg 84%
    05:00 0°C° 0.1 mm 5 mps 752 mmHg 83%
    06:00 0°C° 0.1 mm 5 mps 753 mmHg 83%
    07:00 +1°C° 0.1 mm 5 mps 753 mmHg 83%
    08:00 +1°C° 0.1 mm 5 mps 754 mmHg 82%
    09:00 +1°C° 0.1 mm 5 mps 755 mmHg 82%
    10:00 +1°C° 0.1 mm 6 mps 755 mmHg 79%
    11:00 +2°C° 0.1 mm 6 mps 755 mmHg 77%
    12:00 +3°C° 0.1 mm 6 mps 756 mmHg 74%
    13:00 +3°C° 0.2 mm 6 mps 756 mmHg 75%
    14:00 +2°C° 0.2 mm 6 mps 757 mmHg 77%
    15:00 +2°C° 0.2 mm 6 mps 757 mmHg 78%
    16:00 +2°C° 0.2 mm 5 mps 758 mmHg 80%
    17:00 +2°C° 0.2 mm 5 mps 759 mmHg 81%
    18:00 +1°C° 0.2 mm 5 mps 759 mmHg 83%
    19:00 +1°C° 0.2 mm 5 mps 760 mmHg 84%
    20:00 +1°C° 0.2 mm 4 mps 761 mmHg 84%
    21:00 +1°C° 0.2 mm 4 mps 761 mmHg 85%
    22:00 +1°C° 0.1 mm 4 mps 762 mmHg 86%
    23:00 +1°C° 0.1 mm 4 mps 762 mmHg 87%

    17 December, Sunday

    Time Temperature Precipitation Wind Pressure Humidity
    00:00 +1°C° 0.1 mm 3 mps 763 mmHg 88%
    01:00 +1°C° 0.1 mm 3 mps 763 mmHg 87%
    02:00 +1°C° 0.1 mm 3 mps 763 mmHg 86%
    03:00 +1°C° 0.1 mm 3 mps 764 mmHg 85%
    04:00 +1°C° 0 mm 3 mps 764 mmHg 85%
    05:00 +1°C° 0 mm 3 mps 764 mmHg 85%
    06:00 0°C° 0 mm 3 mps 765 mmHg 86%
    07:00 +2°C° 0 mm 2 mps 765 mmHg 86%
    08:00 +2°C° 0 mm 2 mps 765 mmHg 86%
    09:00 +2°C° 0 mm 2 mps 766 mmHg 87%
    10:00 +3°C° 0 mm 2 mps 766 mmHg 85%
    11:00 +3°C° 0 mm 3 mps 766 mmHg 83%
    12:00 +4°C° 0 mm 3 mps 766 mmHg 81%
    13:00 +3°C° 0 mm 3 mps 766 mmHg 84%
    14:00 +3°C° 0 mm 3 mps 766 mmHg 86%
    15:00 +3°C° 0 mm 3 mps 766 mmHg 89%
    16:00 +2°C° 0 mm 3 mps 766 mmHg 91%
    17:00 +2°C° 0 mm 3 mps 766 mmHg 92%
    18:00 +1°C° 0 mm 3 mps 766 mmHg 94%
    19:00 +1°C° 0 mm 3 mps 766 mmHg 94%
    20:00 +2°C° 0 mm 3 mps 766 mmHg 94%
    21:00 +1°C° 0 mm 4 mps 766 mmHg 95%
    22:00 +1°C° 0 mm 4 mps 765 mmHg 94%
    23:00 +2°C° 0 mm 5 mps 765 mmHg 94%

    18 December, Monday

    Time Temperature Precipitation Wind Pressure Humidity
    00:00 +3°C° 0 mm 5 mps 765 mmHg 93%
    01:00 +3°C° 0.4 mm 6 mps 764 mmHg 93%
    02:00 +4°C° 0.4 mm 6 mps 764 mmHg 92%
    03:00 +4°C° 0.4 mm 7 mps 763 mmHg 92%
    04:00 +5°C° 1.2 mm 7 mps 762 mmHg 92%
    05:00 +5°C° 1.2 mm 7 mps 762 mmHg 92%
    06:00 +6°C° 1.2 mm 7 mps 761 mmHg 92%
    07:00 +7°C° 0.3 mm 6 mps 762 mmHg 93%
    08:00 +7°C° 0.3 mm 6 mps 762 mmHg 93%
    09:00 +8°C° 0.3 mm 5 mps 762 mmHg 93%
    10:00 +8°C° 0.1 mm 5 mps 762 mmHg 91%
    11:00 +8°C° 0.1 mm 5 mps 762 mmHg 88%
    12:00 +8°C° 0.1 mm 5 mps 763 mmHg 86%
    13:00 +8°C° 0 mm 5 mps 763 mmHg 86%
    14:00 +7°C° 0 mm 5 mps 763 mmHg 86%
    15:00 +7°C° 0 mm 5 mps 763 mmHg 86%
    16:00 +7°C° 0 mm 4 mps 764 mmHg 86%
    17:00 +6°C° 0 mm 4 mps 765 mmHg 86%
    18:00 +6°C° 0 mm 4 mps 765 mmHg 87%
    19:00 +6°C° 0 mm 4 mps 766 mmHg 85%
    20:00 +5°C° 0 mm 4 mps 766 mmHg 84%
    21:00 +5°C° 0 mm 4 mps 767 mmHg 83%
    22:00 +5°C° 0 mm 3 mps 767 mmHg 82%
    23:00 +5°C° 0 mm 3 mps 767 mmHg 81%
    Show more